Location: Waco, TX
(31.5480°N, 97.1670°W)
Time: 00:35:49
(UTC-06:00)

ISS - Pass Details

Date: 08 December 2017
Orbit: 403 x 407 km, 51.6° (Epoch: 12 December)

Event Time Altitude Azimuth Distance (km) Brightness Sun altitude
Rises 15:03:00 0° 269° (W) 2,320 0.6 23.2°
Reaches altitude 10° 15:06:02 10° 300° (WNW) 1,463 -0.8 22.8°
Maximum altitude 15:07:33 13° 327° (NNW) 1,319 -1.3 22.6°
Drops below altitude 10° 15:09:03 10° 355° (N) 1,465 -1.3 22.4°
Sets 15:12:07 0° 26° (NNE) 2,327 -0.5 21.9°
